Location: Naloco
(16.5478°S, 37.1017°E)
Time: 02:51:31
(UTC+00:00)

IUS-1 SRM-2 - Pass Details

Date: 13 August 2020
Orbit: 272 x 21235 km, 26.0° (Epoch: 22 September)

Event Time Altitude Azimuth Distance (km) Brightness Sun altitude
Rises 15:44:25 0° 317° (NW) 1,940 6.2 -5.9°
Reaches altitude 10° 15:46:17 10° 339° (NNW) 1,077 4.3 -6.4°
Maximum altitude 15:47:51 20° 34° (NE) 789 2.9 -6.7°
Drops below altitude 10° 15:50:07 10° 87° (E) 1,575 4.0 -7.3°
Enters shadow 15:50:30 - 91° (E) 1,760 4.3 -7.3°
